Aeroporto :
LOGIN :

Iscrizione | Disclaimer

   EN    FR    IT 

 










Sommario :    VFR   VFR Marginale   IFR   IFR Intensivo   IFR Molto Intensivo
Visibilità : 
Base nubi : 
>= 8 km
>= 3000ft
5 / 8 km
1000 / 3000 ft
1500m / 5 km
500 / 1000 ft
800 / 1500m
200 / 500 ft
< 800m
< 200 ft
Simboli :   Temporali  Nebbia  Neve Forte  Precipitazioni Forti  Vento > 20 kt
SIGMETs :   Varie  Temporali  Ghiacco  Turbolenza  Onda orograficha  Ceneri Vulcaniche






- Altitudine del aeroporto : 0 ft


ENQA - Troll A Platform

ULTIMO METAR :
  • 060250Z AUTO 34044KT 4200NDV -RA BR OVC010/// 12/11 Q0987 W12/S5

METARs OBSOLETI :
  • 060220Z AUTO 34044KT 1500NDV +RA BKN009/// BKN047/// 12/11 Q0987 W12/S5
  • 060150Z AUTO 33041KT 4800NDV -RA BR OVC011/// 12/11 Q0986 W12/S5
  • 060120Z AUTO 34039KT 2900NDV RA BKN008/// OVC046/// 12/11 Q0986 RERA W12/S4
  • 060050Z AUTO 33037KT 2500NDV RA BKN008/// BKN055/// 12/11 Q0986 RERA W12/S4
  • 060020Z AUTO 31036KT 4800NDV RA BKN009/// 11/11 Q0985 W11/S4

TAF N/A



MetMap, La meteo Aeronautica in un colpo d'occhio ! - Copyright ORBIFLY Dicembre 2007 - Disclaimer

ORBIFLY MET'MAP TEAM :

Programmazione e sviluppo : Alexandra Zaïnal
Concezione : Baudouin d'Aumeries
Aiuto per la programmazione : Marc-Olivier Méhu
Supporto tecnico e logistico : Manuel Goepfert
Aiuto per la traduzione : Arnaldo La Scala

Contatto : metmap@orbifly.com




FONTI E CREDITI :

   NOAA